Simultaneous Nadir Overpasses (SNOs) Predictions

Prediction of SNOs between LANDSAT-8 and METOP-B Satellite Orbit:

Table of predicted SNOs for the next 14.0 days since TLE Epoch: 9/8/2017
Index Date (LANDSAT-8) Time (LANDSAT-8) Lat,Lon (LANDSAT-8) SZA (LANDSAT-8 ) Date (METOP-B) Time (METOP-B) Lat,Lon (METOP-B) SZA (METOP-B ) Distance(km) Time Diff (sec)
1 09/08/2017 17:55:40 81.21, -47.61 78.05 09/08/2017 17:54:59 81.20, -47.65 78.02 0.80 41
2 09/08/2017 18:45:06 -81.22, 120.32 101.90 09/08/2017 18:45:39 -81.22, 120.14 101.91 3.14 33
3 09/11/2017 13:29:55 81.21, 18.85 79.14 09/11/2017 13:29:18 81.21, 19.00 79.14 2.60 37
4 09/11/2017 14:19:21 -81.23,-173.20 100.81 09/11/2017 14:19:58 -81.22,-173.19 100.79 0.21 37
5 09/14/2017 09:04:09 81.20, 85.24 80.23 09/14/2017 09:03:37 81.21, 85.25 80.21 0.17 32
6 09/14/2017 09:53:35 -81.22,-106.78 99.71 09/14/2017 09:54:17 -81.22,-106.92 99.71 2.53 42
7 09/17/2017 04:38:24 81.20, 151.57 81.32 09/17/2017 04:37:57 81.20, 151.46 81.29 1.87 27
8 09/17/2017 05:27:50 -81.22, -40.43 98.62 09/17/2017 05:28:36 -81.23, -40.31 98.58 2.13 46
9 09/20/2017 00:12:38 81.21,-141.79 82.45 09/20/2017 00:12:16 81.20,-141.96 82.42 2.93 22




NCC Satellite Simultaneous Nadir Overpasses (SNOs) Prediction Service
